Location: Blackwater Beach
(38.5801°N, 75.1577°W)
Time: 10:10:01
(UTC+00:00)

COSMOS 2428 - Pass Details

Date: 13 February 2026
Orbit: 843 x 856 km, 70.9° (Epoch: 11 March)

Event Time Altitude Azimuth Distance (km) Brightness Sun altitude
Rises 23:34:05 0° 332° (NNW) 3,433 6.2 -11.8°
Reaches altitude 10° 23:36:36 10° 327° (NNW) 2,493 5.5 -12.3°
Maximum altitude 23:42:08 51° 253° (WSW) 1,061 3.7 -13.4°
Drops below altitude 10° 23:47:38 10° 178° (S) 2,477 5.2 -14.5°
Sets 23:50:07 0° 174° (S) 3,408 5.8 -15.0°
